GFSNGP_sfc_wetblb_096.txt.gz
Wetbulb
43.02 44.36 44.35 42.04 42.92 45.04 44.83 44.78 41.50 49.76 50.79 52.08 54.41 55.77 56.89 58.06 58.29 57.78 58.22 58.16 57.35 57.65 58.65 59.49 59.95 62.22 64.03 65.65 65.87 67.70 67.99 67.74 67.74 68.17 69.14 67.65 68.37 69.12 70.40 72.29 72.67 72.93 72.41 72.51
41.80 44.19 45.13 41.72 44.14 47.36 50.23 49.76 50.52 51.65 51.87 55.63 56.83 56.91 56.62 57.20 57.72 57.48 58.01 58.91 59.22 58.71 58.54 58.93 59.12 60.24 62.31 63.42 63.66 64.86 65.60 66.20 67.49 66.93 66.95 67.36 68.03 68.37 68.69 68.89 71.61 72.38 72.99 71.99
36.59 42.56 41.39 36.98 41.28 42.41 47.29 50.68 52.47 48.98 53.14 56.21 55.51 56.28 56.43 56.62 55.97 55.06 55.12 55.16 55.31 56.49 57.43 59.44 60.03 60.59 60.64 61.85 62.62 62.43 62.67 63.84 64.75 64.69 64.53 64.92 65.26 65.61 66.30 66.77 67.97 68.39 70.51 71.70
35.41 39.43 30.51 39.45 44.46 47.29 51.54 53.05 53.76 54.21 54.94 55.72 55.50 56.45 55.84 55.58 53.82 53.65 53.68 53.31 53.17 53.46 54.34 55.04 55.78 59.59 60.65 61.03 60.79 61.32 62.25 63.17 64.15 64.55 64.40 63.83 64.29 64.06 64.35 65.83 66.54 67.24 67.90 69.07
32.36 33.05 40.79 44.47 44.20 43.06 45.29 48.75 55.18 53.86 54.47 55.00 52.98 52.72 51.84 53.95 52.95 51.14 50.56 50.90 52.43 52.78 52.43 52.80 54.15 55.48 56.36 55.83 56.06 56.15 56.32 58.39 60.56 61.68 61.72 63.67 63.29 63.73 64.28 64.20 64.61 65.44 67.07 67.56
32.95 30.42 31.85 42.21 47.37 48.10 50.34 45.58 55.24 55.86 52.97 51.62 51.68 45.37 47.67 52.21 51.96 51.32 51.41 51.45 51.76 51.84 52.17 52.33 52.39 54.68 53.69 53.18 53.53 53.49 54.05 55.65 56.76 57.83 58.41 59.57 60.09 61.12 62.94 63.48 64.55 65.42 65.76 66.55
33.52 32.38 37.76 44.74 47.38 49.81 38.04 39.84 51.83 52.55 51.82 51.24 48.59 49.30 49.28 50.82 50.22 50.83 51.05 51.38 51.95 51.85 50.85 50.26 51.16 51.77 50.48 50.92 50.78 52.58 54.29 54.91 55.02 54.80 55.71 56.33 56.83 58.07 59.77 59.27 59.50 61.14 63.92 65.68
33.56 30.71 29.62 48.55 47.37 43.46 44.44 46.07 52.01 51.24 49.86 49.26 50.69 50.30 49.77 49.30 48.58 49.26 49.55 50.60 50.64 49.33 48.70 48.88 49.64 50.16 48.36 47.93 50.05 50.87 51.62 51.61 52.13 53.72 54.76 55.69 54.82 55.49 55.29 55.49 56.64 57.75 61.33 62.86
38.87 38.07 44.54 46.81 46.47 48.26 47.82 48.15 47.85 49.47 50.86 51.14 49.91 48.88 48.69 48.02 47.68 47.89 48.05 48.01 48.65 47.94 47.34 47.72 48.38 48.56 46.52 46.88 48.42 47.86 48.01 48.14 49.21 49.86 50.80 51.84 52.01 53.01 54.28 54.49 54.34 54.39 54.12 55.50
40.53 43.89 44.78 46.35 47.40 48.77 48.93 47.40 48.29 49.78 49.57 49.92 47.83 48.33 46.79 46.50 46.30 46.40 47.20 46.96 46.85 46.70 45.87 45.45 46.42 46.63 46.40 47.09 47.03 46.21 45.41 45.78 46.75 47.05 47.26 48.11 50.61 51.50 51.36 51.05 50.69 50.73 50.76 51.18
39.09 43.47 45.38 48.46 47.18 47.75 47.71 48.06 47.88 48.66 48.87 48.18 47.86 46.70 46.16 45.44 45.24 45.44 45.29 45.67 45.67 45.36 44.82 45.02 45.16 45.11 45.31 45.92 46.22 45.35 45.21 45.23 44.65 44.89 44.91 46.57 48.28 48.78 49.93 49.66 47.31 47.84 48.76 48.53
36.00 42.85 42.80 44.64 46.41 48.44 47.05 46.81 46.95 47.23 46.79 47.92 48.06 46.36 46.29 45.23 45.67 45.89 45.35 45.02 44.75 44.92 44.81 44.22 43.76 44.65 44.99 45.34 45.25 43.66 43.47 44.29 44.26 43.70 44.21 44.80 44.91 46.24 47.79 46.96 46.52 44.73 43.73 44.97
42.91 45.38 45.64 46.65 48.01 47.94 46.74 46.82 48.20 46.82 46.67 46.21 47.16 47.34 46.76 45.20 44.35 47.25 45.12 44.80 44.13 44.18 44.26 43.99 43.84 43.75 44.05 45.26 44.44 43.76 42.30 43.28 42.48 42.76 42.32 42.35 43.18 43.32 43.40 46.13 46.52 45.14 44.29 44.53
47.41 46.21 44.35 45.74 44.22 46.99 47.58 48.52 49.44 47.86 47.32 47.42 46.74 47.54 47.16 45.24 45.42 45.17 44.06 44.90 44.95 44.26 43.72 43.68 43.41 43.18 44.33 44.48 43.86 41.98 40.76 45.10 40.53 40.73 40.92 41.31 42.05 42.60 43.33 43.38 43.31 44.83 45.61 45.04
46.53 46.32 44.54 46.25 47.36 47.52 49.75 48.06 46.33 45.62 45.96 46.12 46.81 46.54 46.90 45.12 44.30 44.51 45.17 44.69 45.67 44.02 43.90 43.47 42.89 42.52 44.11 43.73 41.82 40.33 40.23 40.28 40.70 40.31 40.52 42.17 41.12 41.97 42.57 42.63 42.71 42.95 44.04 44.44
44.88 45.21 45.96 45.79 47.02 47.32 48.09 47.52 45.68 45.44 45.67 45.81 46.30 45.95 47.09 46.90 46.00 45.17 45.59 44.68 43.89 42.76 42.79 42.29 42.41 43.76 43.63 42.75 41.00 40.43 40.03 45.31 42.72 38.28 38.30 38.38 38.90 39.49 39.59 38.98 38.71 39.62 40.48 41.56
41.66 40.48 41.83 41.57 44.78 47.34 47.46 47.87 47.69 47.96 48.46 48.23 47.47 46.16 46.59 46.55 45.86 45.05 45.60 45.23 44.71 44.32 43.61 42.80 42.87 44.09 43.35 42.24 41.21 40.15 38.70 38.27 42.04 37.18 36.71 36.90 37.02 36.80 37.06 37.49 37.48 37.78 38.25 40.14
44.49 44.76 44.92 45.01 45.08 47.01 47.34 48.38 48.92 48.75 48.26 49.02 48.13 48.50 48.40 47.56 45.93 44.86 45.54 44.44 43.70 43.12 43.29 44.32 43.87 44.08 43.34 42.36 40.49 38.62 37.59 37.16 36.66 35.77 35.98 36.17 35.84 35.97 35.66 36.12 36.20 36.03 36.31 37.81
47.01 46.65 46.99 46.95 46.50 47.15 45.90 45.97 47.07 48.19 49.13 49.36 49.02 48.41 48.72 49.05 47.94 47.41 45.22 44.43 44.06 43.43 43.68 44.60 49.75 47.83 42.59 43.41 41.69 37.80 37.36 36.91 36.09 35.91 36.20 37.36 34.88 34.62 35.12 37.03 36.39 36.22 36.23 36.33
48.05 48.48 48.61 48.83 48.57 47.04 45.97 46.29 46.91 46.37 46.40 46.20 45.95 45.56 45.33 46.99 48.19 47.08 46.29 44.97 46.01 46.55 45.88 45.47 48.03 43.63 42.71 43.87 47.74 37.43 37.29 36.91 36.44 35.93 36.17 36.06 34.90 34.56 34.70 36.13 36.17 35.88 35.74 35.66
47.85 48.33 47.96 48.28 48.16 48.80 48.72 47.88 49.28 47.75 48.29 46.37 45.39 45.54 45.60 46.03 48.17 49.23 46.75 46.63 46.76 47.52 46.63 49.68 46.78 43.34 43.46 43.86 45.10 37.52 37.06 36.79 36.20 36.20 35.93 35.22 34.95 34.26 33.94 36.26 35.79 34.90 34.46 35.03
47.41 49.43 49.33 49.48 48.42 48.43 48.26 48.70 49.87 49.81 46.91 46.83 46.75 47.22 45.64 45.26 46.97 47.76 48.78 46.77 48.87 49.64 48.33 48.26 47.96 47.22 44.09 49.46 39.78 37.97 37.47 37.33 36.87 36.46 35.66 35.36 34.34 33.09 32.97 33.70 35.15 34.51 33.89 34.35
48.51 47.74 46.51 46.17 45.17 45.30 46.32 47.59 47.27 49.09 47.47 47.65 45.72 44.91 45.08 46.83 46.05 47.13 46.36 48.82 49.18 49.37 48.31 47.53 48.56 50.25 50.86 46.48 40.37 38.80 38.72 38.36 37.95 37.22 36.67 35.70 34.86 33.40 32.79 32.82 35.10 34.80 34.40 34.71
45.20 45.55 45.47 46.51 45.50 44.36 42.70 41.70 43.88 45.43 45.99 45.99 45.63 45.29 43.75 43.63 44.41 47.94 49.96 50.34 49.86 49.06 48.48 48.24 49.45 50.75 50.85 43.54 40.63 39.56 39.67 39.31 39.80 39.26 37.74 38.49 35.09 33.57 32.74 32.49 34.79 35.28 35.42 34.96
43.87 43.50 42.97 43.31 41.49 40.07 40.57 40.66 40.86 40.67 41.53 44.20 45.16 45.12 45.62 45.88 45.87 46.72 49.65 49.81 49.41 49.25 48.98 49.82 50.07 50.34 48.55 42.11 41.19 40.15 40.26 40.46 40.70 40.21 38.65 37.50 34.91 33.42 33.21 33.04 33.93 35.55 35.73 36.07
43.07 42.29 41.87 41.79 41.21 41.12 41.73 41.83 41.13 42.41 42.85 42.58 42.76 43.46 44.85 44.49 45.81 46.06 46.88 48.80 49.01 48.59 47.20 46.59 46.50 46.15 42.85 41.31 41.26 41.57 41.78 41.58 41.43 40.94 40.21 38.80 35.94 34.34 33.96 33.57 33.45 36.02 36.52 37.31
44.45 43.12 42.18 41.37 41.37 42.34 42.85 42.14 41.66 41.94 42.49 42.25 42.38 43.73 45.98 45.45 47.90 47.83 48.37 48.24 47.48 48.02 47.52 46.26 45.17 45.61 43.27 42.92 42.20 42.67 42.80 42.55 41.71 42.00 40.77 39.42 37.55 36.54 35.44 34.90 34.52 34.82 36.23 38.20

GFSNGP_sfc_wetblb_102.txt.gz
Wetbulb
39.45 41.70 41.61 39.80 39.59 41.06 39.54 40.22 42.30 44.91 49.20 53.62 55.35 56.37 57.43 58.06 58.13 58.33 58.90 59.56 60.38 60.32 61.39 63.47 65.21 65.73 66.59 67.40 68.68 68.75 68.41 68.14 67.40 68.17 68.19 67.96 67.65 67.85 68.21 69.00 69.72 71.85 71.71 71.52
40.16 42.99 41.80 39.80 43.89 42.38 48.05 46.86 48.72 49.64 48.79 55.20 57.51 57.25 57.14 57.08 56.78 56.75 57.06 57.75 58.72 59.37 60.90 61.58 61.97 62.51 63.37 64.51 65.70 67.69 68.17 67.67 67.60 67.12 67.06 66.10 66.30 66.40 66.75 67.27 67.87 68.70 69.67 71.25
33.77 40.09 41.13 36.30 39.97 42.24 42.82 50.64 50.46 47.38 50.59 55.73 54.94 55.17 56.30 56.25 56.07 56.01 56.39 57.31 57.94 58.83 59.52 60.53 60.71 61.10 60.46 62.08 63.18 63.06 63.36 64.24 64.78 64.97 64.50 63.86 64.62 64.49 64.98 65.47 66.73 66.73 67.54 68.63
34.38 36.58 31.88 42.29 44.34 48.49 50.80 52.08 52.71 52.16 54.72 56.08 55.60 55.53 56.87 57.04 54.59 54.86 55.14 56.11 57.38 58.16 57.26 57.08 56.96 57.00 57.04 56.97 56.92 57.12 57.26 58.29 61.53 63.39 61.94 62.11 62.28 62.94 63.07 63.67 65.13 65.67 66.44 67.36
34.24 33.50 39.17 42.59 43.57 42.54 45.21 48.80 54.29 53.63 55.29 54.96 54.04 53.37 52.42 55.30 55.11 53.70 53.58 53.99 55.64 55.65 55.25 55.00 54.98 55.45 55.03 55.07 55.27 55.01 54.86 55.05 56.62 58.82 58.85 58.90 58.51 59.98 61.72 61.08 60.97 63.62 65.39 66.46
32.37 31.04 32.08 41.56 46.32 48.56 50.19 39.63 55.32 55.05 54.41 51.97 53.97 48.82 49.41 53.21 52.95 52.23 53.16 54.43 53.99 53.48 52.76 52.34 51.89 52.85 52.27 51.58 52.04 51.77 52.42 52.80 54.71 55.53 55.75 57.12 58.12 58.92 60.19 60.02 60.05 62.79 65.99 65.68
31.81 31.44 35.95 43.23 46.80 48.51 38.11 38.69 54.86 55.86 54.71 53.62 51.42 51.33 49.16 52.42 50.94 51.36 52.56 52.37 52.06 51.62 50.50 49.87 50.04 50.29 48.78 48.96 48.68 50.34 51.56 51.09 51.18 52.10 52.74 53.36 54.46 55.30 56.07 57.24 57.30 56.79 56.79 57.31
29.86 29.27 29.11 45.06 45.83 40.87 43.01 48.75 54.86 53.20 52.95 50.09 49.79 49.85 49.92 49.39 49.71 49.97 49.60 50.26 50.43 48.96 48.14 47.84 48.46 48.08 46.66 46.47 48.09 49.29 49.44 49.35 49.86 50.28 51.29 51.49 52.01 52.41 52.37 52.82 52.67 52.86 52.77 53.27
35.98 34.48 41.50 44.30 43.94 46.10 45.86 48.60 50.96 51.88 51.78 51.53 50.05 49.79 51.06 50.68 49.87 49.33 48.32 47.88 48.31 47.15 46.54 46.89 47.34 47.36 45.89 46.37 47.69 47.53 46.89 46.75 47.30 48.27 48.61 50.21 49.97 49.37 48.81 49.87 50.29 50.57 50.61 50.08
38.89 41.43 43.09 44.61 46.15 47.41 49.01 49.10 51.11 51.87 51.91 52.00 49.69 50.33 50.21 49.44 48.20 47.72 48.08 47.21 46.88 46.45 45.75 45.02 46.21 46.36 46.17 46.72 46.84 46.17 45.36 45.36 45.32 45.75 45.49 46.69 48.12 48.24 47.69 47.46 47.66 47.80 47.75 47.58
38.11 41.91 43.63 45.58 45.56 46.36 49.56 50.86 51.01 52.03 52.17 51.05 49.78 49.82 50.00 48.03 47.37 47.27 46.70 46.42 46.62 45.82 44.65 44.51 45.36 45.48 45.85 45.87 46.01 44.88 44.58 43.95 43.27 43.34 43.61 44.08 44.97 45.36 46.27 46.65 46.35 46.50 45.71 45.97
37.32 41.26 41.08 42.27 45.21 46.88 47.32 49.01 50.36 50.41 50.83 51.79 51.12 49.55 49.73 48.62 48.44 47.36 46.37 46.58 46.21 45.13 44.50 44.20 44.46 44.60 44.76 45.17 45.07 44.00 42.75 42.76 42.48 42.40 42.85 43.00 43.04 43.15 44.04 44.30 43.30 41.96 41.58 42.92
41.42 44.21 44.23 45.71 46.51 48.00 46.10 47.59 49.44 49.60 50.51 49.38 50.82 50.26 49.63 47.74 47.56 47.31 46.14 45.87 45.49 44.96 44.96 44.78 44.54 44.45 44.54 44.78 43.81 42.77 41.62 41.67 41.85 41.94 41.53 41.14 41.17 40.89 39.73 41.65 42.99 40.94 40.27 40.69
45.80 44.91 43.22 45.46 44.39 46.39 47.36 48.00 49.78 48.63 48.63 48.52 47.24 47.35 46.88 46.21 46.92 46.06 45.80 46.24 45.80 44.71 44.08 44.07 43.75 43.98 44.87 43.53 42.58 42.36 43.17 42.15 40.57 40.51 40.26 40.08 40.17 39.80 39.65 38.71 38.13 38.57 40.19 40.05
44.51 45.42 44.26 45.25 45.98 46.64 47.77 46.10 46.14 45.88 46.05 45.52 46.79 45.99 46.33 45.86 45.25 45.61 45.75 45.75 45.68 44.63 43.96 44.08 43.12 43.65 44.45 42.72 42.00 41.64 40.77 39.60 39.37 39.56 39.73 39.43 39.17 38.82 38.59 38.30 37.86 37.67 38.48 38.65
43.50 43.78 44.02 44.54 45.11 45.90 47.09 44.92 43.62 43.83 46.02 45.38 45.63 45.35 46.31 47.15 46.51 45.66 44.81 44.84 43.76 43.27 43.67 43.24 43.13 44.28 44.58 42.33 41.40 41.82 41.95 41.81 39.69 38.56 38.54 38.08 38.11 37.81 37.37 37.32 37.26 37.17 36.97 37.16
41.41 40.01 41.03 42.06 43.57 45.37 45.58 46.69 47.23 46.29 46.31 46.65 46.94 47.39 46.55 45.54 44.62 44.32 44.43 45.11 45.89 44.97 44.66 43.76 43.87 44.67 44.97 42.74 41.38 41.19 41.81 42.47 41.22 38.69 38.39 38.24 38.04 37.48 37.23 37.15 36.96 36.81 36.93 38.08
44.04 43.88 43.87 43.94 43.59 45.17 47.92 49.08 48.69 48.64 48.03 48.91 48.27 48.11 46.89 45.13 45.24 45.14 45.50 45.58 44.50 44.28 44.51 44.81 44.97 44.80 44.69 43.39 42.23 40.91 40.40 40.42 38.98 38.78 38.59 38.56 38.51 38.34 38.07 37.84 37.38 37.04 37.10 37.72
45.16 44.90 45.76 46.24 45.18 45.65 46.38 47.90 49.11 50.03 50.48 50.83 50.14 48.97 47.89 47.68 47.03 46.87 45.73 44.57 44.44 44.45 45.81 45.30 47.82 47.92 44.42 44.70 43.71 40.73 39.94 39.35 38.85 38.79 38.85 39.11 39.31 38.74 38.50 38.39 38.02 37.75 37.44 36.89
46.28 46.90 47.58 47.98 47.17 46.15 45.91 48.33 49.28 48.76 48.79 48.93 49.35 49.49 48.20 48.18 47.77 47.00 47.16 45.31 46.06 46.79 48.00 46.61 47.62 48.21 45.18 45.20 49.54 41.24 40.31 39.84 39.03 38.62 38.74 38.92 39.03 39.31 39.22 37.70 38.35 38.09 37.63 36.97
45.81 46.83 47.31 47.76 47.58 48.21 46.84 46.56 46.26 45.51 46.11 46.26 45.82 46.19 47.84 49.41 50.76 50.69 48.08 46.44 48.86 49.11 49.13 50.12 47.67 47.31 46.66 45.79 49.23 41.51 40.75 39.90 39.35 39.21 38.69 39.94 39.78 39.72 39.22 39.09 38.53 38.03 37.69 37.11
45.40 45.95 46.88 48.21 48.05 48.57 49.08 48.30 48.65 47.54 46.66 46.35 46.61 46.31 45.64 45.28 45.49 45.92 49.06 48.85 50.45 50.32 50.14 49.60 49.10 49.84 48.29 49.91 47.63 42.95 41.12 40.45 40.18 39.51 39.47 39.59 39.42 39.50 39.29 38.97 38.48 38.24 37.73 37.31
46.84 48.12 48.43 47.49 47.44 47.50 48.06 47.01 46.68 47.00 46.54 45.96 45.34 45.46 45.53 46.47 46.75 45.31 45.13 48.35 49.12 49.70 49.86 49.20 49.52 50.67 51.37 48.97 46.81 44.64 42.61 41.14 40.39 40.13 40.42 40.47 40.27 40.19 40.25 39.70 39.38 38.61 38.51 37.74
46.50 47.16 46.62 45.86 44.59 44.62 44.55 43.90 42.72 42.93 43.57 43.87 44.18 45.00 45.23 44.88 45.22 45.62 47.49 47.79 48.19 48.66 49.65 50.03 49.70 50.22 50.77 49.28 47.49 45.96 44.57 42.75 42.18 41.71 41.61 39.99 41.22 40.77 40.22 40.32 39.78 39.35 38.74 37.31
44.36 44.18 44.65 44.15 43.76 43.73 42.98 41.95 41.96 42.15 43.22 43.73 43.93 44.37 44.69 45.17 44.96 46.52 46.27 46.74 46.92 48.19 49.24 49.54 50.32 50.08 50.34 49.32 47.55 45.89 44.47 43.99 43.08 42.79 42.58 42.31 42.23 41.39 41.47 40.93 40.68 40.40 39.67 38.90
42.45 43.27 43.81 44.03 42.93 41.52 41.26 41.53 41.85 42.63 43.09 43.07 44.06 44.62 45.63 45.80 45.60 45.51 46.25 46.83 48.35 48.32 49.42 49.73 50.15 50.28 49.95 49.29 47.42 47.24 46.03 45.00 42.84 42.27 42.69 43.44 43.20 42.25 42.13 41.80 40.95 39.96 40.18 40.63
42.19 41.06 40.95 40.67 40.96 41.20 42.15 42.31 42.17 42.48 43.59 43.53 43.50 44.85 45.58 47.31 48.17 47.63 47.71 49.53 49.31 49.99 49.07 49.65 50.21 49.90 49.73 48.72 47.49 47.17 46.36 44.79 42.55 43.84 43.28 43.76 43.75 43.66 43.55 42.84 42.03 40.99 40.50 39.92

GFSNGP_sfc_wetblb_105.txt.gz
Wetbulb
45.78 45.57 46.29 46.22 48.79 46.17 47.85 49.31 49.13 52.14 53.99 57.30 57.50 58.10 59.18 60.48 60.41 60.80 61.43 62.42 62.23 63.09 67.11 68.11 68.23 66.51 65.72 68.17 68.91 68.82 68.62 68.28 67.65 68.73 70.71 71.21 71.58 71.78 72.65 73.79 74.30 75.58 75.65 75.53
45.06 46.46 46.01 44.57 49.31 50.07 50.41 49.83 52.31 53.18 54.69 60.60 59.48 60.28 58.92 59.01 59.57 59.65 60.00 60.42 60.75 61.94 63.07 64.64 66.67 66.61 66.92 67.79 68.92 68.89 68.40 67.92 68.84 68.82 70.36 69.33 70.19 70.19 70.69 71.51 72.30 73.53 74.22 74.73
42.68 45.76 46.55 43.14 45.37 50.56 51.50 53.79 54.03 52.46 56.14 60.28 57.15 57.55 57.72 58.26 59.01 59.11 59.47 59.65 59.68 60.52 60.44 60.82 62.08 63.23 63.15 64.39 65.21 64.80 65.42 66.59 67.27 65.73 65.65 66.53 67.87 68.43 68.84 69.52 70.52 70.52 71.54 72.64
43.77 45.74 38.79 46.02 49.01 51.54 53.34 54.47 56.13 56.25 57.31 58.91 57.97 58.08 58.82 60.53 58.61 58.04 58.65 58.90 58.38 57.40 57.63 58.21 58.22 57.93 58.02 58.46 58.79 59.55 60.20 61.91 63.06 63.51 63.77 65.17 64.77 63.80 64.73 66.72 67.74 69.26 70.77 71.40
40.77 42.08 44.60 46.09 46.83 47.51 48.73 49.91 56.70 56.35 57.07 57.14 57.55 57.26 56.12 58.86 60.72 60.74 60.47 57.30 55.55 55.57 56.09 56.37 56.04 57.12 57.14 56.68 58.10 57.73 56.78 57.29 58.61 60.89 61.56 62.86 61.57 61.53 62.90 63.90 65.52 68.47 69.14 66.27
42.27 38.13 37.42 46.03 49.09 51.87 53.52 46.69 57.42 57.77 56.04 55.71 55.72 51.21 51.27 56.36 56.98 58.31 57.37 55.59 54.79 54.37 54.23 54.01 54.55 55.20 54.09 54.33 54.02 52.92 53.69 54.82 56.78 58.97 60.98 61.15 62.16 62.53 62.23 63.30 61.77 59.85 59.78 59.39
40.29 39.76 42.49 47.91 50.35 51.47 43.22 45.55 55.48 59.10 58.17 56.36 56.78 58.71 55.34 54.61 55.36 56.92 55.39 53.97 54.15 53.51 52.64 52.48 54.39 54.26 53.57 53.92 52.69 53.37 53.95 53.61 54.62 56.64 56.35 57.28 57.95 59.03 59.72 59.31 57.71 57.77 57.10 56.87
39.13 39.08 37.55 50.21 50.68 46.94 50.33 53.24 56.37 60.02 59.24 58.73 55.94 56.26 55.01 53.50 54.49 56.05 55.45 53.66 53.33 54.04 54.48 54.69 55.24 55.04 53.83 53.52 54.55 54.46 55.15 55.53 56.04 56.79 56.44 56.58 55.95 55.59 57.11 58.66 57.72 57.30 56.73 56.02
43.78 43.77 49.38 50.91 49.96 52.37 52.32 51.99 55.59 58.62 58.03 55.99 54.98 54.94 54.08 54.51 54.73 55.90 56.17 55.41 55.34 54.13 53.17 53.42 54.09 54.29 52.63 52.60 53.56 53.72 53.74 53.38 53.44 54.35 54.80 55.03 55.03 54.83 54.43 56.07 53.98 53.61 54.98 54.09
46.01 47.72 49.31 50.91 53.14 54.12 54.29 54.02 55.51 57.64 55.84 55.91 54.52 54.76 53.92 53.33 52.65 53.35 54.10 53.65 53.67 53.25 51.93 51.33 52.20 52.49 52.14 52.27 52.62 52.49 51.46 51.22 51.65 51.67 51.63 52.81 52.87 52.81 52.36 52.19 51.88 51.52 51.05 49.23
46.53 49.21 49.89 50.31 51.46 52.46 54.12 55.23 55.84 56.39 56.16 55.55 55.21 54.09 53.10 51.66 50.21 49.12 50.29 52.46 53.23 52.54 51.71 50.92 51.65 51.41 51.60 51.81 52.15 50.29 49.61 49.36 49.52 49.55 49.76 49.12 49.30 50.12 49.32 47.31 47.47 48.47 48.53 49.03
46.90 48.74 49.95 49.50 51.27 51.80 52.55 53.66 55.41 55.30 54.02 54.97 55.65 53.96 52.66 50.76 50.00 49.07 49.03 49.85 50.60 51.73 51.58 50.60 50.88 50.60 51.04 51.92 51.57 49.84 48.61 48.37 48.14 48.32 48.38 48.17 47.46 46.44 43.48 42.44 41.44 40.65 40.52 43.39
48.85 50.44 49.81 51.43 51.31 51.64 51.50 53.65 54.86 55.88 55.91 54.22 54.65 53.44 51.63 50.27 49.90 50.07 49.72 50.35 49.93 48.95 50.93 50.74 50.40 49.81 50.54 50.87 50.34 49.52 48.12 47.96 46.70 46.77 46.84 46.60 46.65 46.11 44.21 42.96 41.42 40.01 39.56 39.45
51.38 50.92 49.66 50.39 50.18 52.00 52.00 51.95 52.78 54.80 55.90 55.76 54.65 54.49 53.44 52.08 50.46 49.92 49.51 50.70 51.31 51.15 49.73 50.29 49.91 48.89 48.94 49.59 49.79 48.89 47.52 45.20 46.80 46.30 46.32 46.09 46.05 45.61 45.92 45.18 44.15 44.07 40.36 39.75
50.07 51.10 50.36 51.09 51.63 51.99 52.24 51.43 52.59 52.80 53.24 53.33 54.53 54.22 53.69 51.67 51.58 51.27 52.01 51.58 50.31 50.42 50.15 50.33 49.55 49.57 49.58 49.50 49.14 48.36 46.96 46.30 46.38 46.01 45.59 45.13 45.36 45.10 45.14 44.64 44.35 44.25 44.97 42.45
49.80 50.07 49.76 49.41 50.00 50.88 51.24 50.51 51.32 51.97 51.98 52.45 52.78 53.03 53.56 54.34 53.84 52.97 52.12 50.80 49.26 48.43 49.24 49.59 49.36 50.14 49.13 48.67 48.65 47.25 46.41 45.01 45.86 45.61 44.96 45.07 45.11 44.66 44.40 44.22 43.93 43.96 43.54 42.84
48.33 47.43 48.47 48.70 49.39 49.86 50.54 51.02 51.15 51.33 49.99 51.02 52.03 52.70 53.28 53.52 53.12 52.46 51.85 51.93 52.19 51.86 50.90 50.08 49.69 50.63 49.89 48.46 47.86 47.14 46.36 45.72 44.66 45.61 45.18 45.36 45.34 44.64 44.66 44.64 44.41 44.08 43.79 41.59
51.09 50.77 50.46 49.98 49.52 49.59 50.58 51.10 51.33 50.98 49.82 51.32 51.35 51.13 50.96 51.14 51.69 52.37 52.60 52.42 52.08 51.67 51.83 51.74 51.49 50.79 50.65 49.36 48.52 48.00 47.28 46.71 45.90 45.65 45.50 45.14 45.63 45.66 45.64 45.58 45.49 45.17 44.96 42.87
50.79 50.48 50.52 50.30 50.40 50.73 51.91 51.81 52.11 52.82 53.48 53.42 52.60 52.56 53.13 52.91 51.17 51.94 52.09 50.88 50.63 50.77 52.38 52.68 50.75 50.68 50.94 50.66 49.46 48.79 47.80 47.09 46.15 46.09 46.23 45.11 44.79 46.20 46.16 46.34 46.69 47.30 47.09 46.25
50.40 51.28 51.38 51.26 51.49 51.39 51.43 52.72 52.70 51.99 53.48 53.47 53.73 53.73 52.91 52.39 50.82 49.74 50.82 50.97 51.91 52.21 52.39 50.46 50.15 52.01 51.56 51.44 50.56 49.36 48.51 47.66 46.97 46.55 46.03 46.20 46.48 46.70 46.88 42.69 46.49 47.14 47.74 47.14
50.98 51.30 51.68 52.16 52.39 52.68 52.15 52.49 52.57 52.44 52.93 53.40 53.57 53.54 54.13 54.67 54.30 53.41 51.30 49.30 52.24 52.43 50.35 50.73 49.78 48.72 50.76 51.34 50.40 49.32 49.17 48.34 47.95 47.47 46.62 45.86 46.37 46.51 47.12 47.40 47.15 47.09 47.21 47.23
51.53 51.40 51.88 52.33 52.07 51.07 51.96 52.34 51.97 51.33 50.33 49.95 51.17 52.13 52.13 52.40 53.15 53.64 54.43 53.02 55.11 51.89 53.13 52.60 53.15 52.86 49.80 51.93 47.99 48.96 48.54 47.79 48.28 48.29 47.65 47.42 47.36 47.28 47.42 47.62 47.17 47.15 47.11 47.27
51.56 52.15 52.17 51.43 52.15 51.65 50.82 51.19 51.84 52.98 52.35 52.01 51.71 51.94 51.66 51.85 52.37 51.20 50.09 53.02 52.06 52.03 52.35 54.22 53.19 52.02 51.95 51.73 51.08 48.69 48.29 47.75 48.12 47.89 48.52 48.43 48.38 48.10 47.95 47.99 47.91 47.55 47.51 47.41
51.85 51.81 50.82 51.65 51.91 51.53 50.87 51.99 51.36 50.56 50.16 50.05 50.11 50.36 50.07 49.50 50.34 52.01 52.28 50.62 48.96 49.90 52.52 53.09 52.72 51.26 51.03 53.85 54.07 52.10 49.69 47.54 47.87 48.89 48.84 44.40 48.83 48.42 48.17 48.24 48.09 47.94 47.89 46.14
52.35 51.70 51.92 51.24 50.85 50.93 51.87 50.69 49.48 48.96 49.85 50.57 50.46 51.28 51.07 51.90 50.11 51.64 51.58 51.42 48.40 48.82 52.16 50.94 50.63 50.44 52.05 53.04 52.93 51.93 51.79 48.58 46.28 46.64 48.84 49.59 49.13 48.83 49.00 49.07 48.89 49.00 49.00 48.71
51.53 51.49 51.66 52.33 51.93 51.52 50.73 49.04 48.85 48.95 49.63 50.25 50.91 51.53 51.89 52.37 52.57 51.48 52.22 49.47 51.62 50.50 51.88 52.19 51.37 51.76 52.66 53.00 51.30 50.48 50.15 48.37 46.14 47.17 48.06 49.29 49.71 50.34 50.33 50.18 50.17 49.60 49.31 48.98
50.95 46.76 50.69 50.56 50.78 50.36 49.78 49.36 48.88 48.40 49.18 50.57 49.96 51.59 51.80 52.52 52.48 51.15 48.69 51.76 51.86 51.57 51.07 50.15 51.07 50.86 51.33 51.92 50.54 49.56 48.39 48.07 46.20 47.82 48.83 48.45 49.92 50.67 51.03 50.98 50.61 50.61 50.04 49.69

GFSNGP_sfc_wetblb_111.txt.gz
Wetbulb
50.56 51.57 53.30 52.02 50.87 51.01 51.03 52.06 50.05 51.84 52.76 59.64 64.12 64.96 65.71 66.71 67.41 68.47 68.81 69.69 69.88 69.76 70.38 71.33 71.25 70.56 69.73 69.94 69.90 71.02 70.98 72.49 72.74 76.40 77.25 76.97 76.52 76.47 75.84 76.00 76.38 76.45 76.64 76.67
49.68 50.52 51.18 50.68 51.98 51.95 51.66 51.81 52.21 52.95 52.90 61.48 65.65 67.31 66.07 65.11 65.62 65.93 66.15 66.81 69.72 70.34 70.79 70.38 71.41 70.06 69.58 69.48 71.84 71.40 71.03 71.16 72.69 74.71 73.09 75.75 75.77 74.34 76.46 75.98 76.12 76.23 76.00 76.16
47.10 50.35 49.65 47.46 50.65 51.79 52.74 53.69 52.99 51.55 57.72 60.76 64.06 64.39 64.20 63.18 64.18 64.08 65.72 64.84 65.35 67.48 68.97 71.52 70.94 70.82 70.48 71.17 72.22 71.55 71.27 70.99 69.66 71.14 68.80 69.70 70.63 73.44 74.56 74.04 75.26 75.11 75.15 73.39
47.37 49.90 42.03 50.55 56.11 55.60 55.01 56.30 58.16 58.48 60.73 64.02 64.84 65.08 64.30 65.37 65.11 64.84 64.71 63.75 63.83 61.39 65.02 68.17 69.92 70.38 69.82 70.38 70.09 71.14 70.14 69.63 69.12 68.23 67.07 67.07 67.25 67.36 68.22 70.67 73.21 73.64 71.50 70.16
45.57 45.96 45.27 48.32 53.37 53.05 53.43 54.63 59.76 59.92 61.74 64.21 64.40 63.77 61.89 64.72 66.28 65.19 64.40 62.66 61.54 60.46 59.47 61.54 64.84 67.42 68.10 69.18 67.65 65.82 64.22 65.29 67.47 68.11 68.17 67.92 66.13 65.67 67.18 69.07 67.97 68.49 68.46 65.20
47.49 43.68 37.51 45.51 52.70 56.45 56.16 50.46 56.14 61.43 61.87 61.84 61.22 58.90 59.46 63.78 63.49 63.49 64.24 61.14 57.80 57.77 57.59 57.55 58.95 62.99 61.70 60.30 60.93 59.97 61.94 63.08 64.64 65.73 65.82 67.45 69.06 69.26 69.99 67.72 65.60 63.96 60.42 60.88
46.38 45.15 47.62 52.69 52.17 55.71 45.59 49.80 57.92 61.00 62.00 60.42 59.24 61.90 64.48 62.96 62.52 61.50 58.91 56.65 57.31 56.61 54.80 55.32 56.39 57.22 55.40 55.04 54.62 56.55 57.94 61.32 63.95 65.89 66.43 66.66 67.50 67.97 65.48 62.42 62.10 61.24 57.97 57.21
47.17 40.37 40.57 55.68 54.98 50.46 55.56 58.56 58.82 61.18 62.15 61.92 59.61 62.62 61.89 59.64 60.79 57.79 56.02 55.33 54.59 54.16 55.49 56.12 56.47 55.64 55.16 54.98 57.13 57.49 58.43 58.88 60.42 63.39 63.86 65.14 66.52 65.79 63.71 61.19 59.89 59.20 59.40 61.13
49.59 48.94 55.09 56.77 56.63 58.14 59.58 59.38 60.31 60.58 62.49 62.98 62.03 60.93 59.10 58.97 58.88 56.96 56.83 56.09 56.10 54.78 54.41 56.66 57.96 56.80 54.89 57.44 60.05 59.73 58.74 58.72 59.98 60.89 62.45 64.34 64.03 63.89 62.00 63.15 63.22 63.39 62.68 61.32
50.76 53.76 54.21 55.49 57.31 58.69 59.37 59.94 61.73 62.21 62.51 63.03 60.44 60.02 58.40 58.91 58.45 58.65 59.12 58.56 57.63 56.91 55.76 54.91 58.19 56.95 57.40 57.77 59.98 60.35 59.39 59.72 60.43 60.45 60.71 61.92 62.18 62.54 61.65 61.50 61.38 60.35 59.86 59.16
51.43 54.95 55.26 55.74 56.88 57.50 58.41 60.01 60.72 62.50 61.85 60.87 61.03 59.39 57.54 57.34 56.91 55.91 54.92 54.80 56.75 56.53 56.82 55.56 57.44 56.62 57.51 58.75 59.52 58.94 58.90 58.78 59.17 57.92 59.19 54.36 49.88 51.28 54.18 47.10 45.05 58.32 55.76 55.29
49.36 55.69 55.89 56.02 57.24 57.25 57.25 58.07 59.85 60.29 60.36 60.57 60.22 58.73 58.65 56.32 56.66 55.85 54.88 55.25 55.24 55.19 56.03 55.73 56.02 56.50 57.43 59.24 58.83 57.53 56.83 56.78 56.64 56.83 56.57 55.25 52.33 46.78 41.51 41.35 40.59 39.60 39.91 45.63
54.24 57.49 55.39 57.76 57.55 57.59 57.17 58.38 59.21 59.94 61.29 59.40 59.49 58.12 54.70 53.30 54.26 54.71 56.64 57.41 55.95 54.63 55.51 56.00 55.64 54.94 56.69 57.08 57.30 57.00 56.30 55.74 55.09 54.55 54.99 54.02 51.89 49.99 46.25 42.48 41.02 39.68 39.35 39.63
57.23 57.23 54.68 56.01 55.94 57.91 57.74 58.20 57.82 60.03 60.61 61.03 58.18 56.77 55.02 52.75 53.07 52.86 52.73 53.57 54.98 55.50 54.97 54.84 54.89 55.03 56.07 56.42 56.75 56.07 55.54 48.95 54.39 54.76 54.40 53.83 53.49 52.56 50.94 49.97 48.64 46.28 40.14 42.72
55.93 56.84 56.56 58.21 57.63 57.22 57.85 57.88 57.71 57.99 59.02 60.07 58.76 57.70 55.45 53.64 53.18 52.31 52.85 53.20 53.49 51.99 52.47 52.78 53.07 53.99 55.76 55.19 55.13 54.63 53.03 52.56 53.82 54.59 54.44 53.54 53.76 53.55 53.36 52.71 52.06 51.12 49.47 43.19
54.36 54.29 54.16 53.87 54.59 55.46 56.36 56.52 56.47 56.92 57.77 58.59 59.66 58.22 57.92 57.99 56.96 56.15 57.06 57.20 55.84 53.53 54.08 53.63 53.73 53.79 54.11 53.39 53.13 52.08 51.81 50.20 50.56 53.92 52.18 51.99 52.48 52.39 51.97 51.99 51.62 51.55 51.20 51.01
51.81 51.69 52.56 52.03 52.45 53.22 53.78 55.12 56.96 57.37 57.99 58.09 59.51 60.39 60.08 57.96 58.63 58.07 58.27 58.86 57.94 57.12 55.56 54.97 53.92 55.59 54.34 53.89 53.43 51.89 51.13 50.16 50.86 49.83 50.31 51.60 51.47 51.02 51.21 51.24 50.27 50.24 50.29 45.67
55.18 55.12 54.71 54.04 53.83 53.52 53.89 55.03 55.66 57.18 58.09 58.91 59.64 60.19 59.49 59.30 59.17 59.40 59.13 59.51 57.94 56.48 56.23 55.87 55.57 55.61 54.48 53.38 53.34 52.36 50.92 50.14 49.13 50.07 51.37 50.94 50.93 50.98 50.76 51.05 51.30 51.05 50.56 46.50
55.60 54.16 53.91 54.30 54.89 54.58 56.12 55.85 56.31 57.06 58.22 59.17 59.41 58.93 59.47 59.34 59.28 59.68 59.76 58.35 57.32 56.47 56.80 57.23 55.73 55.14 54.33 53.62 53.63 52.72 51.70 51.00 50.34 49.86 50.78 49.95 50.19 50.83 50.47 50.82 50.82 51.21 51.40 50.57
54.84 54.85 54.81 55.00 55.71 56.09 55.98 57.15 57.38 57.25 57.80 57.98 58.06 57.82 57.55 58.35 59.08 59.05 59.59 58.23 58.40 57.87 59.46 57.97 56.48 55.36 55.37 54.25 53.46 52.22 51.52 51.08 51.00 50.78 50.79 50.97 50.54 50.55 50.92 47.74 50.69 51.54 51.65 51.23
55.12 54.89 54.66 55.45 55.68 56.03 56.86 56.67 56.38 55.66 57.02 56.95 56.07 56.35 57.14 57.69 58.31 58.49 57.92 57.67 58.79 59.20 58.54 56.28 55.65 56.30 56.03 56.02 53.89 51.03 50.99 51.74 52.86 52.34 51.89 50.76 51.43 51.01 51.12 51.74 51.30 50.92 51.32 51.69
55.49 54.83 54.67 55.04 54.78 55.06 55.68 56.48 56.33 56.13 55.54 55.96 56.38 55.79 56.22 56.09 56.50 57.22 58.35 57.03 57.65 54.18 57.57 57.20 57.48 56.50 55.53 56.00 55.16 53.47 52.66 52.01 50.05 52.01 52.33 52.27 52.05 51.53 51.45 51.89 51.84 52.03 52.17 52.51
55.91 55.47 55.08 55.20 54.75 54.41 55.12 55.66 55.89 54.87 54.44 54.92 54.66 55.04 54.97 54.95 54.15 53.08 53.19 57.48 57.81 52.40 57.53 56.79 56.26 54.80 53.61 55.66 55.17 55.62 55.19 54.77 53.31 53.65 52.24 50.79 50.20 51.63 52.29 52.01 52.34 52.06 52.84 52.66
56.34 56.29 55.66 56.33 55.98 54.01 53.78 54.56 55.04 55.52 55.64 56.06 54.35 54.84 53.31 51.80 52.57 53.86 55.11 52.94 50.48 51.57 54.71 55.30 52.98 52.52 52.24 56.36 56.40 56.33 56.49 56.66 54.18 54.89 54.93 47.69 51.46 49.49 49.47 50.71 51.78 52.40 52.32 49.44
56.89 56.63 56.03 55.51 54.61 53.74 55.91 55.62 55.22 54.35 54.21 53.72 54.59 54.75 54.69 54.05 52.70 53.46 55.01 54.96 50.95 51.89 54.65 52.91 51.64 50.99 53.70 54.59 55.06 55.07 56.21 56.31 56.18 55.67 54.64 54.48 53.37 52.76 52.03 48.73 50.98 49.20 51.28 51.48
56.88 55.53 55.66 56.75 55.67 54.75 54.41 54.80 53.08 52.86 52.97 52.35 52.58 54.22 54.34 55.32 54.86 54.25 54.91 53.55 54.27 52.61 54.29 54.38 54.23 53.90 54.19 54.12 53.92 53.67 54.04 55.44 56.01 55.43 54.57 54.77 55.78 55.15 52.93 52.20 49.83 49.90 50.89 51.93
57.12 52.36 55.93 55.77 56.39 56.26 55.01 53.43 52.62 52.48 52.88 52.48 52.35 54.19 53.89 54.59 53.74 52.32 48.56 53.93 52.09 52.37 53.81 53.83 53.16 52.46 53.63 52.29 52.75 53.42 54.88 54.95 51.54 55.20 55.68 55.62 55.09 53.87 52.92 51.84 50.07 50.02 51.28 51.24

GFSNGP_sfc_wetblb_117.txt.gz
Wetbulb
45.49 48.03 48.44 48.69 48.79 49.54 47.04 49.57 42.71 46.41 50.71 54.74 57.34 59.28 59.23 63.69 63.38 63.67 64.66 64.58 65.98 66.18 66.08 66.60 66.66 67.44 69.73 70.02 68.89 69.93 69.81 69.88 69.26 70.42 70.94 70.90 72.12 71.55 71.92 72.71 72.63 72.23 72.05 71.17
44.66 49.32 49.95 47.88 50.53 50.60 52.51 51.07 50.13 51.66 54.09 58.41 60.10 58.78 58.75 58.92 64.49 63.02 64.75 66.15 67.50 65.93 66.03 65.44 66.08 66.34 69.73 68.97 69.20 69.69 69.55 68.43 70.00 69.47 69.52 69.28 69.55 70.18 71.43 71.46 71.09 70.92 70.01 66.70
38.97 47.36 47.15 44.63 47.82 49.17 50.97 52.59 50.82 51.06 54.26 55.30 54.85 56.69 57.00 58.68 64.52 64.68 63.81 65.40 66.61 68.17 67.89 65.74 66.85 68.63 68.29 68.58 69.15 68.16 68.30 69.65 69.87 67.95 67.00 66.82 68.41 68.74 69.83 70.89 70.80 68.68 65.48 61.00
38.98 42.26 34.77 47.19 51.90 52.26 51.71 53.03 55.50 55.68 58.15 55.47 54.65 54.79 56.16 61.25 63.68 63.75 63.71 62.93 62.72 63.41 65.74 69.06 69.93 69.15 69.15 69.70 69.07 68.90 69.31 68.07 67.69 67.08 66.49 66.33 66.28 68.13 69.40 68.90 67.23 64.88 62.87 58.09
39.75 38.78 42.51 47.77 49.78 48.94 47.59 50.05 54.95 56.55 57.16 58.14 60.29 61.26 60.92 63.55 63.38 61.85 60.96 60.06 60.39 60.63 62.62 64.93 68.83 68.94 68.47 67.03 68.11 68.00 67.19 66.90 66.69 66.15 65.16 65.64 66.46 66.55 64.74 62.75 60.91 60.53 57.97 54.34
41.03 39.60 35.29 43.91 51.49 53.52 52.85 46.66 56.00 57.69 55.05 54.67 56.66 51.99 57.01 60.96 60.35 59.26 59.44 59.58 58.55 58.43 60.66 60.92 62.20 63.59 62.59 61.36 61.70 62.50 64.81 65.87 66.88 66.61 65.84 65.36 64.82 65.87 64.30 61.91 59.60 58.41 55.82 52.51
40.39 38.98 44.05 51.27 51.94 53.62 43.00 46.53 55.86 58.36 57.20 55.32 52.59 58.43 58.30 58.10 57.30 57.45 56.35 56.67 57.09 56.33 56.15 57.53 58.73 59.87 58.45 58.73 57.97 59.34 61.86 64.39 64.25 64.90 64.86 65.09 65.33 64.34 62.33 59.07 56.88 55.07 53.30 51.82
41.10 38.35 38.51 53.67 53.36 46.83 50.03 54.04 56.51 59.32 58.44 57.87 59.24 59.15 57.80 56.23 55.14 55.26 55.81 55.79 55.87 54.78 55.51 57.33 57.36 57.47 56.95 56.45 58.48 59.47 60.33 60.94 62.15 64.05 65.08 63.44 62.30 62.18 61.50 59.03 56.72 54.66 54.19 52.57
43.96 42.57 51.74 53.75 52.42 52.37 54.22 53.33 54.14 58.26 59.15 57.47 58.41 57.78 57.38 55.53 54.76 54.53 54.86 55.08 56.07 55.87 55.19 56.09 57.32 57.14 56.19 57.35 59.05 59.10 59.61 59.68 59.81 55.02 54.55 60.12 61.68 61.04 60.15 59.14 58.44 57.74 57.34 54.17
46.45 49.05 52.27 53.68 55.03 55.36 55.84 55.33 56.99 59.95 59.58 59.86 57.74 57.22 55.87 54.87 54.33 53.55 53.96 54.49 55.97 55.65 54.92 55.00 56.28 56.71 57.00 58.46 58.44 57.89 57.69 58.01 53.80 49.92 47.48 47.68 50.67 48.05 47.90 47.48 52.30 59.01 57.51 53.88
45.91 50.48 52.28 54.51 54.01 54.04 55.81 57.01 57.91 60.14 60.67 60.31 57.78 56.19 55.38 54.90 55.10 55.18 55.10 55.63 55.57 54.52 53.94 53.92 55.06 55.85 57.41 58.04 58.51 57.49 57.86 56.98 55.40 50.12 45.79 41.69 40.89 44.79 44.72 41.16 41.61 49.58 46.61 45.67
45.95 52.82 51.92 52.71 54.77 56.29 54.81 54.69 56.51 59.41 58.96 59.12 58.24 56.88 56.16 55.12 54.55 54.53 54.90 55.88 55.31 53.99 53.67 53.41 53.66 53.50 54.96 57.06 57.64 56.42 56.36 56.03 56.45 54.51 51.68 48.88 45.60 42.16 42.81 42.28 42.24 41.19 41.88 41.41
52.55 55.21 56.05 56.25 56.34 57.04 54.44 55.69 56.67 59.70 59.62 57.70 57.68 56.52 54.29 53.14 53.98 53.90 53.71 53.58 53.18 53.49 53.76 53.84 53.72 53.94 53.17 55.26 54.93 55.87 56.28 56.16 56.52 55.51 53.20 48.11 46.09 44.01 41.72 42.17 42.36 40.82 40.01 40.09
54.68 54.47 52.34 54.79 51.70 55.71 55.68 57.92 56.18 59.40 58.39 57.62 56.17 55.31 54.41 53.62 53.36 53.60 53.07 52.77 52.94 52.83 52.61 52.50 52.72 52.66 53.61 52.35 51.83 50.70 48.33 51.18 49.66 51.19 51.15 49.57 47.65 45.47 43.35 42.79 41.71 40.34 40.96 40.86
53.72 53.94 52.13 53.90 55.27 55.08 55.60 54.90 54.44 57.75 57.33 56.04 54.91 53.84 53.56 52.90 53.14 53.44 54.15 54.02 53.55 52.73 52.33 52.40 52.21 51.55 52.45 51.66 51.35 50.35 49.34 50.95 50.67 48.45 49.78 50.41 49.06 46.89 44.09 45.73 43.03 40.96 38.74 40.41
53.60 53.62 53.20 51.99 54.24 53.80 53.13 53.70 51.99 55.69 56.57 56.44 54.81 53.41 53.51 53.62 54.01 53.50 53.11 52.58 51.01 49.82 49.94 50.31 51.66 51.88 51.81 51.55 51.40 49.57 47.01 51.09 50.40 47.27 46.76 47.37 47.89 48.59 46.76 47.07 44.65 40.85 41.09 42.91
49.86 49.29 49.08 48.66 49.76 50.17 50.79 51.34 51.66 53.55 56.56 56.50 56.02 55.01 54.32 53.18 52.91 51.99 51.81 52.40 51.78 51.48 50.88 50.59 49.87 51.34 50.63 50.72 50.97 48.70 46.99 45.55 50.69 46.39 44.92 46.27 46.65 45.58 45.83 48.46 46.68 46.64 45.89 45.62
52.21 52.80 52.60 51.65 51.92 51.83 51.57 52.52 52.37 52.32 55.77 57.10 56.78 56.30 54.85 53.51 52.13 52.05 52.28 52.69 53.62 54.41 54.37 52.91 53.51 51.94 50.77 49.52 48.70 49.25 47.12 45.72 44.73 45.39 46.25 45.11 45.75 46.71 46.77 46.37 45.96 44.38 41.98 40.14
54.27 53.38 53.23 55.06 52.84 52.20 52.05 52.47 52.67 52.87 54.69 58.06 56.64 55.85 55.89 55.41 55.53 55.53 54.74 54.76 54.39 53.69 54.41 54.21 57.12 54.18 50.73 50.95 51.17 48.32 46.82 46.90 45.04 45.12 46.11 47.79 46.01 45.85 45.75 45.43 45.15 44.16 42.08 40.45
54.84 54.74 54.33 53.77 54.55 53.55 52.45 54.99 55.35 55.25 56.07 56.60 56.46 56.56 54.50 54.49 55.85 55.57 55.65 55.06 55.36 55.48 55.41 54.54 54.62 52.40 51.56 51.36 55.35 48.15 46.64 45.93 45.39 44.63 44.72 44.82 45.40 45.54 45.83 45.22 45.79 45.83 44.19 42.82
54.73 54.22 53.54 53.73 53.27 54.32 55.67 54.77 54.57 53.47 54.72 54.97 54.64 53.10 53.33 55.14 55.09 54.55 53.48 51.62 54.32 56.66 55.94 56.96 53.69 51.86 51.39 52.43 52.57 47.34 46.70 46.07 45.90 45.43 45.42 44.80 45.30 45.19 45.26 45.28 46.16 45.90 46.09 44.71
54.29 53.44 53.28 53.89 53.08 53.21 55.34 55.75 54.93 53.30 53.28 53.05 54.00 53.83 53.30 53.29 54.49 55.66 54.74 53.33 54.59 54.84 55.03 54.41 54.13 54.69 53.72 56.57 49.85 47.72 48.25 47.30 47.25 47.44 47.89 48.10 45.85 45.19 46.61 46.17 45.67 46.48 46.32 46.00
54.37 54.19 53.64 53.06 52.96 53.14 54.13 54.06 53.71 53.48 52.43 52.54 52.00 51.82 51.74 52.38 52.32 50.70 50.37 54.10 53.58 52.73 54.10 54.76 56.10 55.59 55.46 53.30 51.20 49.26 48.16 48.03 47.83 47.12 47.11 47.41 48.99 48.99 45.40 45.88 46.01 46.43 46.43 46.75
54.92 54.59 53.73 54.21 54.32 53.28 51.76 52.67 53.28 53.32 52.53 52.21 51.87 51.85 50.07 47.55 48.35 51.71 51.72 51.83 51.91 52.12 50.72 50.30 52.38 53.93 53.64 52.69 52.07 51.71 50.71 50.75 50.24 50.30 50.96 48.14 48.25 49.23 46.84 48.85 48.18 48.78 48.33 47.51
55.71 54.99 54.78 53.16 52.73 52.52 54.17 53.04 52.99 53.00 52.90 51.40 51.74 50.65 50.65 50.86 48.88 50.02 50.50 49.17 49.68 49.63 49.87 52.42 53.43 53.00 51.31 52.13 52.36 51.86 51.25 50.94 51.09 50.82 50.59 49.98 50.03 49.32 49.84 49.88 49.46 47.59 48.60 49.00
55.71 54.51 54.34 53.83 53.19 53.49 53.22 53.30 50.75 51.13 50.67 50.35 50.42 51.45 51.30 51.92 50.91 50.03 51.03 50.13 50.69 49.47 48.64 49.83 49.40 48.27 48.74 49.05 49.54 49.94 50.08 50.69 49.88 49.51 49.56 50.29 49.73 49.36 49.35 48.99 48.88 48.52 47.67 47.97
55.92 52.16 54.19 53.82 53.80 53.82 53.03 52.84 51.84 51.01 51.47 51.44 50.22 51.35 51.92 52.14 50.23 50.27 49.94 49.37 49.50 49.21 49.31 48.39 47.99 48.36 48.29 48.23 47.98 48.20 48.32 49.73 48.66 49.23 50.67 50.25 50.00 49.76 49.43 49.13 49.17 49.24 48.11 47.69

GFSNGP_sfc_wetblb_123.txt.gz
Wetbulb
40.56 46.92 47.99 47.69 47.50 48.51 45.19 43.26 41.86 47.79 47.55 50.65 53.86 57.21 60.10 61.66 63.13 62.16 61.04 62.91 63.04 63.87 64.61 65.13 66.04 66.44 69.08 68.52 68.92 69.54 69.52 69.47 69.32 69.19 69.23 69.34 69.57 70.01 70.26 70.24 70.38 70.35 70.47 69.51
40.73 47.06 47.61 45.34 48.38 49.56 49.66 50.93 50.87 50.35 48.74 53.22 54.72 59.17 58.62 59.39 62.13 61.52 61.54 62.74 63.03 64.12 65.54 65.38 66.05 67.16 68.46 67.95 67.62 68.24 68.47 68.02 67.73 68.20 68.22 67.68 67.73 68.43 68.49 68.72 69.26 68.61 67.75 66.27
35.03 41.63 42.62 39.91 44.55 47.83 49.09 51.37 50.60 46.18 49.77 55.74 57.12 58.26 57.81 59.05 60.62 61.15 62.36 63.77 63.86 64.22 65.85 66.70 67.17 68.08 67.91 67.84 68.34 67.42 67.59 68.13 68.54 68.29 67.64 67.43 68.18 67.82 67.55 68.47 67.07 64.51 62.92 62.32
34.22 35.82 31.77 42.14 47.89 51.17 50.94 52.12 53.26 54.10 54.91 57.06 58.77 59.19 59.02 59.81 59.61 60.61 60.85 60.88 61.89 63.02 64.65 64.86 67.12 68.38 68.47 68.58 68.29 66.99 66.58 67.82 67.95 67.25 67.14 67.12 67.21 66.69 67.55 68.38 63.79 61.47 60.76 61.74
35.25 32.64 39.06 44.62 47.02 46.47 45.37 46.30 53.52 52.18 53.72 54.31 57.01 57.10 57.11 58.94 59.01 58.72 59.12 59.39 59.35 60.35 62.30 66.48 66.87 68.13 68.02 68.07 68.04 67.57 67.15 67.21 66.55 66.53 66.39 66.35 64.36 62.43 60.96 61.66 59.83 57.46 56.09 56.06
35.69 33.72 32.04 40.30 48.39 50.55 49.16 41.21 52.30 54.41 52.14 52.82 52.49 46.46 52.35 56.97 57.15 57.47 57.79 57.50 57.30 58.40 59.41 60.65 65.38 67.30 66.95 66.75 66.71 66.87 67.59 67.25 66.30 66.55 65.92 64.36 62.89 60.01 57.96 55.62 53.78 53.83 53.12 54.68
36.53 35.06 40.45 46.40 48.91 50.00 39.04 40.20 50.53 54.86 54.41 51.77 50.40 52.06 55.97 56.12 55.40 56.19 56.30 56.36 57.29 57.24 57.10 58.81 62.02 66.26 63.88 64.04 63.51 65.46 66.80 66.60 66.28 66.08 65.71 64.36 62.66 60.30 57.84 56.09 55.44 55.29 54.41 52.95
35.43 33.23 33.02 49.80 49.70 43.62 45.94 48.57 51.27 55.26 55.28 55.45 56.43 56.42 54.55 54.22 55.14 55.20 55.14 55.66 56.08 56.62 57.26 58.18 60.89 61.55 60.35 59.29 61.89 63.79 64.63 64.88 65.22 65.80 65.94 64.88 61.51 59.01 56.52 53.82 50.49 48.05 48.36 48.19
38.67 38.43 44.69 48.53 47.84 49.38 50.11 52.65 52.74 53.63 56.66 56.78 56.90 55.66 54.18 51.61 53.76 54.49 55.22 55.40 55.92 55.63 56.53 58.00 58.94 60.35 59.21 59.55 61.04 60.37 59.81 58.20 56.78 56.26 57.87 61.88 60.19 58.08 55.18 51.91 49.53 48.43 47.25 47.12
40.67 42.82 46.27 50.05 51.22 51.01 52.27 54.51 55.98 55.24 55.96 56.16 54.66 55.00 53.98 51.76 51.80 54.09 54.88 54.86 55.44 55.10 54.35 55.47 57.80 58.30 59.10 59.47 57.49 55.76 53.94 52.57 51.95 51.30 51.46 51.22 51.21 52.71 57.52 55.48 54.14 52.44 49.68 47.25
41.58 45.38 47.77 50.65 51.23 51.61 55.36 57.31 57.01 57.11 56.90 55.66 53.72 51.66 50.34 49.65 50.73 53.65 53.96 54.49 54.47 52.93 53.48 53.78 54.84 55.88 57.40 57.49 55.79 53.30 51.75 50.04 48.25 47.27 46.18 44.42 45.94 46.68 46.07 44.00 46.96 54.35 51.05 46.87
41.84 46.39 46.57 48.06 51.13 53.06 56.58 57.05 57.32 57.31 55.86 55.12 53.45 51.60 50.36 49.52 50.41 50.68 53.64 54.08 52.77 52.73 51.93 52.35 53.80 53.86 54.50 55.62 55.88 53.22 51.57 50.49 49.16 47.90 46.77 45.56 44.52 43.59 43.76 43.07 42.20 41.58 43.96 45.28
47.28 48.69 49.74 51.19 52.24 52.74 53.70 57.00 58.12 57.21 56.31 54.93 53.07 52.31 50.43 50.37 50.77 53.02 51.28 53.50 50.52 51.33 51.55 52.34 52.27 51.36 52.71 53.99 54.21 53.89 53.82 52.98 51.69 49.40 47.19 46.13 46.44 46.75 44.86 43.60 42.41 40.51 40.52 40.82
50.98 51.79 49.58 51.19 50.19 51.64 55.56 58.21 57.46 57.59 56.51 55.40 53.11 51.95 50.98 50.20 49.60 50.73 50.78 51.01 51.38 52.33 50.71 51.89 51.52 49.60 50.33 50.88 51.68 50.66 51.35 52.09 51.23 49.03 47.22 45.02 43.64 43.48 43.53 41.34 41.34 41.25 41.12 40.46
50.77 50.27 50.64 50.55 50.35 50.82 53.47 57.20 56.13 55.08 54.62 53.76 52.84 52.03 51.09 49.80 48.92 49.33 49.83 51.81 51.96 50.89 51.27 49.45 48.57 48.03 48.32 48.10 46.28 44.77 45.70 47.45 51.47 50.52 46.69 44.10 42.11 40.36 40.56 41.04 39.82 39.94 40.05 39.93
48.33 49.33 50.15 49.65 49.21 49.49 53.03 55.72 53.86 53.75 53.54 52.97 52.33 51.42 51.27 50.62 49.45 49.68 49.58 51.37 49.72 46.72 47.78 48.52 48.64 48.25 49.23 48.15 45.29 43.55 44.22 49.45 47.60 47.94 45.96 43.55 41.05 39.01 39.78 37.50 37.07 36.68 36.98 37.16
45.85 44.18 44.01 45.54 48.80 48.56 48.04 50.20 52.65 53.67 53.99 52.68 52.59 52.18 50.98 50.29 49.48 49.09 48.88 50.30 50.83 50.60 49.56 48.26 47.52 47.85 47.53 47.94 47.06 44.99 43.13 43.81 47.32 44.41 45.30 44.73 43.15 40.77 40.80 39.66 37.26 37.07 36.77 38.68
48.96 49.14 47.62 46.86 46.21 46.15 46.55 47.71 48.15 53.28 53.35 53.96 52.73 51.83 50.61 49.81 49.32 48.84 48.87 49.12 47.66 46.84 47.45 47.56 47.76 47.79 48.07 47.44 46.26 45.28 43.31 42.42 41.74 41.38 42.23 42.49 42.18 41.98 42.36 41.73 40.67 38.71 39.28 40.49
49.05 48.34 47.79 48.24 48.05 47.62 47.69 47.75 48.92 52.97 53.61 53.66 52.06 51.20 51.51 50.75 49.13 48.93 48.84 48.23 47.67 46.86 48.70 49.52 52.74 52.62 47.93 48.46 47.74 44.56 44.18 42.98 41.54 40.60 41.02 43.33 41.88 41.37 41.19 42.44 42.66 42.95 42.40 41.84
48.33 48.57 48.93 49.01 49.25 48.15 48.08 48.66 49.63 50.50 53.03 53.48 51.91 50.63 50.05 50.20 49.56 49.24 48.97 48.70 49.59 50.28 50.31 50.94 52.35 52.26 50.90 49.33 54.17 44.48 44.48 44.05 42.89 40.77 39.67 39.75 40.67 41.16 40.87 41.31 42.00 42.73 41.99 41.48
48.35 48.25 48.33 48.63 48.46 49.77 50.85 50.94 51.55 51.53 52.43 52.82 52.18 51.20 51.19 50.95 50.84 50.24 48.10 47.98 51.36 52.09 51.92 54.06 52.50 51.64 50.38 49.85 51.10 47.40 44.46 43.64 42.56 41.59 40.78 39.92 39.59 40.41 40.94 41.07 41.90 42.21 41.93 40.36
47.72 47.37 47.79 48.14 48.29 49.39 50.46 50.19 50.86 51.57 51.72 51.95 52.08 51.63 51.17 51.01 52.46 50.74 50.69 51.20 52.74 52.28 52.62 53.18 53.17 53.34 50.96 54.95 48.60 47.36 45.50 43.85 42.73 41.99 41.52 40.88 40.30 40.12 40.72 41.66 41.86 42.05 42.39 42.05
47.18 46.89 47.52 47.35 47.07 48.01 49.20 48.75 48.92 50.09 50.52 50.86 50.90 50.78 50.82 50.96 50.11 49.10 48.88 51.53 50.84 51.30 51.38 51.46 52.88 54.25 54.41 52.68 50.62 49.92 48.23 46.10 43.07 42.68 42.93 43.18 43.57 43.25 42.36 43.32 43.67 43.36 44.79 44.71
46.86 46.74 47.47 47.82 46.88 48.42 48.09 48.02 47.81 48.08 49.11 49.57 49.75 50.04 48.60 46.61 46.40 47.95 49.27 49.34 50.61 50.83 51.20 51.63 52.12 53.23 53.18 49.88 49.53 48.68 48.17 48.00 45.34 44.33 43.61 42.71 43.70 44.77 45.07 43.98 43.65 43.15 42.92 43.00
47.49 48.00 46.52 46.00 46.70 49.03 49.58 49.00 47.74 46.49 46.43 46.78 46.45 46.11 46.24 44.81 45.51 46.31 47.64 48.92 49.59 49.38 50.06 51.42 52.40 52.35 50.45 49.31 48.82 48.14 47.31 46.92 47.56 47.96 46.15 45.84 46.11 46.21 46.29 46.25 46.58 46.61 46.89 46.50
47.78 48.36 48.83 48.80 49.63 49.68 50.35 48.87 48.72 48.13 45.85 45.49 45.38 45.64 44.63 44.04 44.62 46.50 46.21 47.89 47.65 47.71 46.45 46.06 47.61 47.24 47.24 47.74 48.05 47.99 47.40 47.13 46.88 46.43 46.30 46.04 45.32 44.88 44.57 44.77 45.13 46.09 45.87 46.06
49.06 47.27 47.24 46.37 46.45 47.86 50.12 50.31 50.00 48.30 48.28 48.23 47.78 47.22 46.67 45.72 46.05 45.43 45.19 45.26 45.47 45.58 45.60 45.31 45.90 46.15 44.87 44.62 45.30 45.31 45.11 45.26 44.72 45.83 45.68 44.91 44.60 44.72 44.53 44.62 44.64 44.80 44.57 44.68